| time (UTC) | temp C | wind direction | speed KPH | gust KPH | rain 1hr cm | rain 24hr cm | rain mn cm | humidity % | barometer mb |
| 20260906020004 | 8 | 274 | 0.0 | 0.0 | 0.00 | 0.53 | 0.00 | 90 | 1027.1 |
| 20260906014501 | 8 | 274 | 0.0 | 0.0 | 0.00 | 0.69 | 0.00 | 89 | 1027.1 |
| 20260906013107 | 8 | 274 | 0.0 | 0.0 | 0.00 | 0.69 | 0.00 | 89 | 1027.0 |
| 20260906011555 | 8 | 274 | 0.0 | 0.0 | 0.00 | 0.69 | 0.00 | 89 | 1027.0 |
| 20260906010054 | 8 | 274 | 0.0 | 0.0 | 0.00 | 0.69 | 0.00 | 88 | 1026.9 |
| 20260906004552 | 8 | 274 | 0.0 | 0.0 | 0.00 | 0.69 | 0.00 | 88 | 1026.9 |
| 20260906003049 | 8 | 274 | 0.0 | 0.0 | 0.00 | 0.69 | 0.00 | 88 | 1026.8 |
| 20260906001548 | 9 | 274 | 0.0 | 0.0 | 0.00 | 0.69 | 0.00 | 87 | 1026.8 |
| 20260906000053 | 9 | 274 | 0.0 | 0.0 | 0.00 | 0.69 | 0.00 | 87 | 1026.7 |
| 20260905234545 | 10 | 274 | 0.0 | 0.0 | 0.00 | 0.69 | 0.00 | 87 | 1026.5 |
| 20260905233045 | 10 | 274 | 0.0 | 0.0 | 0.00 | 0.69 | 0.00 | 87 | 1026.4 |
| 20260905231540 | 10 | 274 | 0.0 | 0.0 | 0.00 | 0.69 | 0.00 | 87 | 1026.2 |
| 20260905230041 | 10 | 274 | 0.0 | 0.0 | 0.00 | 0.69 | 0.00 | 86 | 1026.2 |
| 20260905224535 | 10 | 274 | 0.0 | 0.0 | 0.00 | 0.69 | 0.69 | 86 | 1026.1 |
| 20260905223035 | 11 | 274 | 0.0 | 0.0 | 0.00 | 0.69 | 0.69 | 85 | 1026.0 |
| 20260905221533 | 11 | 274 | 0.0 | 0.0 | 0.00 | 0.69 | 0.69 | 85 | 1025.9 |
| 20260905220033 | 11 | 274 | 0.0 | 0.0 | 0.00 | 0.69 | 0.69 | 84 | 1025.6 |
| 20260905214531 | 11 | 274 | 0.0 | 0.0 | 0.00 | 0.69 | 0.69 | 83 | 1025.5 |
| 20260905213027 | 11 | 274 | 0.0 | 0.0 | 0.00 | 0.69 | 0.69 | 82 | 1025.2 |
| 20260905211522 | 12 | 274 | 0.0 | 0.0 | 0.00 | 0.69 | 0.69 | 81 | 1025.1 |
| 20260905210034 | 12 | 274 | 0.0 | 0.0 | 0.00 | 0.69 | 0.69 | 81 | 1024.9 |
| 20260905204518 | 12 | 274 | 0.0 | 0.0 | 0.00 | 0.69 | 0.69 | 80 | 1024.9 |
| 20260905203017 | 12 | 274 | 0.0 | 0.0 | 0.00 | 0.69 | 0.69 | 79 | 1024.9 |
| 20260905201519 | 13 | 274 | 0.0 | 0.0 | 0.00 | 0.69 | 0.69 | 78 | 1024.7 |
| 20260905200023 | 13 | 274 | 0.0 | 0.0 | 0.00 | 0.69 | 0.69 | 76 | 1024.5 |
| 20260905194515 | 14 | 274 | 0.0 | 0.0 | 0.00 | 0.69 | 0.69 | 74 | 1024.2 |
| 20260905193014 | 15 | 274 | 0.0 | 0.0 | 0.00 | 0.69 | 0.69 | 72 | 1024.2 |
| 20260905191511 | 16 | 274 | 0.0 | 0.0 | 0.00 | 0.69 | 0.69 | 70 | 1024.1 |
| 20260905190010 | 16 | 274 | 0.0 | 0.0 | 0.00 | 0.69 | 0.69 | 68 | 1023.9 |
| 20260905184511 | 17 | 274 | 0.0 | 0.0 | 0.00 | 0.69 | 0.69 | 66 | 1023.7 |
| 20260905183006 | 18 | 274 | 0.0 | 0.0 | 0.00 | 0.69 | 0.69 | 63 | 1023.6 |
| 20260905181503 | 18 | 274 | 0.0 | 0.0 | 0.00 | 0.69 | 0.69 | 62 | 1023.4 |
| 20260905180002 | 18 | 274 | 0.0 | 0.0 | 0.00 | 0.69 | 0.69 | 58 | 1023.3 |
| 20260905174503 | 20 | 274 | 0.0 | 4.8 | 0.00 | 0.69 | 0.69 | 53 | 1023.1 |
| 20260905173059 | 20 | 275 | 0.0 | 3.2 | 0.00 | 0.69 | 0.69 | 51 | 1022.9 |
| 20260905171501 | 21 | 272 | 0.0 | 9.7 | 0.00 | 0.69 | 0.69 | 50 | 1022.8 |
| 20260905170106 | 21 | 263 | 0.0 | 4.8 | 0.00 | 0.69 | 0.69 | 50 | 1022.7 |
| 20260905164601 | 21 | 257 | 3.2 | 14.5 | 0.00 | 0.69 | 0.69 | 49 | 1022.6 |
| 20260905163058 | 21 | 258 | 0.0 | 11.3 | 0.00 | 0.69 | 0.69 | 51 | 1022.3 |
| 20260905161553 | 22 | 254 | 1.6 | 12.9 | 0.00 | 0.69 | 0.69 | 48 | 1022.2 |
| 20260905154615 | 22 | 290 | 0.0 | 12.9 | 0.00 | 0.69 | 0.69 | 49 | 1022.1 |
| 20260905153051 | 22 | 274 | 1.6 | 11.3 | 0.00 | 0.69 | 0.69 | 49 | 1022.2 |
| 20260905151550 | 22 | 309 | 3.2 | 17.7 | 0.00 | 0.69 | 0.69 | 50 | 1021.9 |
| 20260905150056 | 22 | 277 | 1.6 | 16.1 | 0.00 | 0.69 | 0.69 | 50 | 1021.9 |
| 20260905144549 | 22 | 287 | 1.6 | 17.7 | 0.00 | 0.69 | 0.69 | 51 | 1021.8 |
| 20260905143054 | 22 | 259 | 0.0 | 19.3 | 0.00 | 0.69 | 0.69 | 52 | 1021.8 |
| 20260905141548 | 22 | 279 | 4.8 | 14.5 | 0.00 | 0.69 | 0.69 | 50 | 1021.8 |
| 20260905140047 | 22 | 279 | 4.8 | 16.1 | 0.00 | 0.69 | 0.69 | 54 | 1021.7 |
| 20260905134546 | 22 | 273 | 3.2 | 20.9 | 0.00 | 0.69 | 0.69 | 55 | 1021.6 |
| 20260905133044 | 21 | 252 | 4.8 | 17.7 | 0.00 | 0.69 | 0.69 | 56 | 1021.7 |
| 20260905131544 | 21 | 264 | 0.0 | 11.3 | 0.00 | 0.69 | 0.69 | 59 | 1021.9 |
| 20260905130048 | 21 | 273 | 1.6 | 14.5 | 0.00 | 0.69 | 0.69 | 58 | 1021.9 |
| 20260905124543 | 21 | 260 | 4.8 | 20.9 | 0.00 | 0.69 | 0.69 | 61 | 1021.9 |
| 20260905123042 | 21 | 273 | 3.2 | 12.9 | 0.00 | 0.69 | 0.69 | 62 | 1021.8 |
| 20260905121543 | 20 | 268 | 0.0 | 16.1 | 0.00 | 0.69 | 0.69 | 65 | 1021.8 |
| 20260905120049 | 20 | 259 | 3.2 | 17.7 | 0.00 | 0.69 | 0.69 | 65 | 1021.9 |
| 20260905114540 | 20 | 257 | 3.2 | 14.5 | 0.00 | 0.69 | 0.69 | 64 | 1021.8 |
| 20260905113040 | 20 | 271 | 1.6 | 11.3 | 0.00 | 0.69 | 0.69 | 65 | 1021.8 |
| 20260905111559 | 20 | 254 | 1.6 | 14.5 | 0.00 | 0.69 | 0.69 | 69 | 1021.8 |
| 20260905110042 | 20 | 260 | 0.0 | 8.0 | 0.00 | 0.69 | 0.69 | 72 | 1021.7 |
| 20260905104548 | 19 | 263 | 0.0 | 8.0 | 0.00 | 0.69 | 0.69 | 77 | 1021.6 |
| 20260905103039 | 18 | 262 | 1.6 | 12.9 | 0.00 | 0.69 | 0.69 | 78 | 1021.7 |
| 20260905101535 | 18 | 261 | 0.0 | 11.3 | 0.00 | 0.69 | 0.69 | 80 | 1021.7 |
| 20260905100031 | 19 | 249 | 1.6 | 11.3 | 0.00 | 0.69 | 0.69 | 79 | 1021.7 |
| 20260905094604 | 18 | 247 | 0.0 | 12.9 | 0.00 | 0.69 | 0.69 | 81 | 1021.6 |
| 20260905093028 | 18 | 12 | 0.0 | 6.4 | 0.00 | 0.69 | 0.69 | 82 | 1021.5 |
| 20260905091527 | 17 | 254 | 0.0 | 8.0 | 0.00 | 0.69 | 0.69 | 86 | 1021.6 |
| 20260905090028 | 17 | 269 | 1.6 | 9.7 | 0.00 | 0.69 | 0.69 | 87 | 1021.3 |
| 20260905084522 | 17 | 250 | 1.6 | 6.4 | 0.00 | 0.69 | 0.69 | 90 | 1021.0 |
| 20260905083020 | 17 | 250 | 3.2 | 14.5 | 0.00 | 0.69 | 0.69 | 90 | 1020.9 |
| 20260905081517 | 16 | 267 | 1.6 | 8.0 | 0.00 | 0.69 | 0.69 | 91 | 1020.7 |
| 20260905080017 | 16 | 286 | 0.0 | 9.7 | 0.00 | 0.69 | 0.69 | 91 | 1020.6 |
| 20260905074516 | 16 | 271 | 0.0 | 4.8 | 0.00 | 0.69 | 0.69 | 93 | 1020.6 |
| 20260905073013 | 16 | 271 | 0.0 | 6.4 | 0.00 | 0.69 | 0.69 | 94 | 1020.4 |
| 20260905071611 | 15 | 269 | 0.0 | 6.4 | 0.00 | 0.69 | 0.69 | 94 | 1020.3 |
| 20260905070010 | 15 | 269 | 0.0 | 6.4 | 0.00 | 0.69 | 0.69 | 94 | 1020.1 |
| 20260905064509 | 14 | 257 | 0.0 | 1.6 | 0.00 | 0.69 | 0.69 | 94 | 1020.1 |
| 20260905063007 | 13 | 257 | 0.0 | 0.0 | 0.00 | 0.69 | 0.69 | 94 | 1020.2 |
| 20260905061506 | 13 | 257 | 0.0 | 0.0 | 0.00 | 0.69 | 0.69 | 93 | 1020.1 |
| 20260905060003 | 13 | 257 | 0.0 | 0.0 | 0.00 | 0.69 | 0.69 | 93 | 1019.9 |
| 20260905054607 | 13 | 257 | 0.0 | 0.0 | 0.00 | 0.69 | 0.69 | 93 | 1019.7 |
| 20260905053057 | 13 | 257 | 0.0 | 0.0 | 0.00 | 0.69 | 0.69 | 92 | 1019.5 |
| 20260905051607 | 13 | 257 | 0.0 | 0.0 | 0.00 | 0.69 | 0.69 | 92 | 1019.2 |
| 20260905050052 | 13 | 257 | 0.0 | 0.0 | 0.00 | 0.69 | 0.69 | 92 | 1018.9 |
| 20260905044549 | 13 | 257 | 0.0 | 0.0 | 0.00 | 0.69 | 0.69 | 92 | 1018.8 |
| 20260905043048 | 13 | 257 | 0.0 | 0.0 | 0.05 | 0.69 | 0.69 | 91 | 1018.6 |
| 20260905041548 | 13 | 257 | 0.0 | 0.0 | 0.08 | 0.69 | 0.69 | 91 | 1018.5 |
| 20260905040053 | 13 | 257 | 0.0 | 0.0 | 0.13 | 0.69 | 0.69 | 91 | 1018.5 |
| 20260905034544 | 14 | 257 | 0.0 | 0.0 | 0.20 | 0.69 | 0.69 | 91 | 1018.6 |
| 20260905033052 | 14 | 257 | 0.0 | 0.0 | 0.25 | 0.66 | 0.66 | 90 | 1018.6 |
| 20260905031545 | 14 | 257 | 0.0 | 0.0 | 0.33 | 0.61 | 0.61 | 90 | 1018.7 |
| 20260905030038 | 15 | 257 | 0.0 | 0.0 | 0.46 | 0.58 | 0.58 | 89 | 1018.8 |
| 20260905024556 | 15 | 257 | 0.0 | 0.0 | 0.48 | 0.51 | 0.51 | 89 | 1018.7 |
| 20260905023034 | 15 | 273 | 0.0 | 6.4 | 0.43 | 0.43 | 0.43 | 87 | 1018.6 |
| 20260905021532 | 16 | 299 | 0.0 | 0.0 | 0.30 | 0.30 | 0.30 | 87 | 1018.4 |